Regional Weather Roundup
Issued by NWS Sterling, VA

Home | Current Version | Previous Version | Graphics & Text | Print | Product List | Glossary On
Versions: 1 2 3 4 5 6 7 8 9 10 11 12 13 14 15 16 17 18 19 20 21 22 23 24 25 26 27 28 29 30 31 32 33 34 35 36 37 38 39 40 41 42 43 44 45 46 47 48 49 50
000
ASUS41 KLWX 291710
RWRLWX

REGIONAL WEATHER ROUNDUP
NATIONAL WEATHER SERVICE BALTIMORE MD/WASHINGTON DC
100 PM EDT TUE JUL 29 2014

Note: "FAIR" indicates few or no clouds below 12,000 feet
with no significant weather and/or obstructions to visibility.
 TC=TEMPERATURE CELSIUS

 * =Non NWS site. Station does not report precipitation (e.g. rain,
    snow, etc.), thunder, or fog.

DCZ001-MDZ009-015-VAZ040>042-051-053>054-291800-
WASHINGTON METRO
  /KDAA//-FT BELVOIR

CITY           SKY/WX    TMP DP  RH WIND       PRES   REMARKS
WASHINGTON NAT MOSUNNY   74  48  39 W16G25    29.95S
DULLES         MOSUNNY   70  46  42 NW14G23   29.95S
ANDREWS AFB    PTSUNNY   71  50  46 NW12      29.94S
QUANTICO       MOSUNNY   74  50  42 NW12G26   29.96S
COLLEGE PARK*  PTSUNNY   72  50  46 W7        29.94S
LEESBURG*      MOSUNNY   72  54  53 W9        29.96F
GAITHERSBURG*  PTSUNNY   68  52  56 W13       29.98S

$$

MDZ006>007-011-014-291800-
BALTIMORE METRO

CITY           SKY/WX    TMP DP  RH WIND       PRES   REMARKS
BWI AIRPORT    CLOUDY    71  50  47 SW10      29.92S
MD SCIENCE CTR   N/A     75  55  49 MISG      29.91F
MARTIN STATE   PTSUNNY   72  57  60 CALM      29.92F
ANNAPOLIS      MOSUNNY   72  51  47 VRB7      29.92S
FORT MEADE*    PTSUNNY   70  52  52 W8        29.95S

$$

MDZ012-015-019>023-291800-
MARYLAND EASTERN SHORE

CITY           SKY/WX    TMP DP  RH WIND       PRES   REMARKS
OCEAN CITY     CLOUDY    73  61  65 E7        29.91R
SALISBURY      PTSUNNY  N/A N/A N/A MISG      29.91S
BAY BRIDGE AP*   N/A     73  52  46 W5        29.92S
CAMBRIDGE*     PTSUNNY   73  55  53 W5        29.92S
EASTON*        PTSUNNY   75  59  57 NW7       29.95S

$$

MDZ017>025-291800-
SOUTHERN MARYLAND

CITY           SKY/WX    TMP DP  RH WIND       PRES   REMARKS
PATUXENT RIVER MOSUNNY   77  51  40 NW12      29.92S
ST INIGOES     SUNNY     75  54  47 W13G20    29.92S
LEONARDTOWN*   SUNNY     73  52  46 W7        29.95R

$$

MDZ003>005-291800-
NORTH CENTRAL MARYLAND

CITY           SKY/WX    TMP DP  RH WIND       PRES   REMARKS
FREDERICK*     PTSUNNY   70  57  64 W6        29.97S
HAGERSTOWN APT CLOUDY    67  52  58 NW10      29.95S
WESTMINSTER*   PTSUNNY   68  55  64 NW5       29.94S

$$

MDZ501>502-291800-
WESTERN MARYLAND

CITY           SKY/WX    TMP DP  RH WIND       PRES   REMARKS
OAKLAND*       PTSUNNY   55  43  62 NW8       30.04R
CUMBERLAND*    PTSUNNY   68  45  42 N13G21    30.02F

$$

VAZ025>031-291800-
SHENANDOAH VALLEY

CITY           SKY/WX    TMP DP  RH WIND       PRES   REMARKS
WINCHESTER*    MOSUNNY   70  46  43 W12G21    29.97S
STAUNTON*      CLOUDY    68  53  58 SW5       30.01F

$$

WVZ021-048>050-054>055-291800-
EASTERN WEST VIRGINIA PANHANDLE

CITY           SKY/WX    TMP DP  RH WIND       PRES   REMARKS
MARTINSBURG    PTSUNNY   69  48  47 W9        29.97S
PETERSBURG*    PTSUNNY   70  47  44 CALM      29.98F

$$

VAZ036>039-050-291800-
CENTRAL FOOTHILLS

CITY           SKY/WX    TMP DP  RH WIND       PRES   REMARKS
CHARLOTTESVILL CLOUDY    71  54  54 N3        29.97S
ORANGE*        PTSUNNY   73  54  49 W13       29.98R

$$

VAZ055>057-291800-
NORTH AND CENTRAL PIEDMONT

CITY           SKY/WX    TMP DP  RH WIND       PRES   REMARKS
FREDERICKSBRG* SUNNY     76  53  44 NW10G18   29.94S
STAFFORD*      MOSUNNY   72  51  48 W8        29.99S

$$

NCZ024-NYZ072-PAZ021-071-VAZ022-071-291800-
OTHER REGIONAL OBSERVATIONS

CITY           SKY/WX    TMP DP  RH WIND       PRES   REMARKS
NEW YORK CITY  PTSUNNY   72  50  45 CALM      29.89S
PHILADELPHIA   MOSUNNY   73  52  47 VRB5      29.90S
PITTSBURGH     CLOUDY    64  49  57 NW3       30.02S
ROANOKE        PTSUNNY   74  54  49 SW5       29.99F
RICHMOND       MOSUNNY   78  50  37 W8        29.94F
RALEIGH        MOSUNNY   78  53  41 CALM      29.96F

$$

ANZ530>537-291800-
MARINE OBSERVATIONS

STATION/POSITION TIME  TEMP    WIND        PRES
                       AIR SEA DIR/SP/G
                 (UTC) (F)     (DEG/KT/KT) (MB)
THOMAS PT LIGHT  1700   69 78  260/ 12/ 14 1013.7R
BALT KEY BRIDGE  1700          240/  7/  9 1012.8F
COVE POINT       1700   71     300/  9/ 12 1013.2S
LEWISETTA        1700   72 78  330/ 10/ 13 1013.3F
SOLOMONS ISLAND  1700      80                N/A
PINEY POINT      1700          320/ 15/ 18   N/A

$$



USA.gov is the U.S. government's official web portal to all federal, state and local government web resources and services.